Time,TemperatureF,DewpointF,PressureIn,WindDirection,WindDirectionDegrees,WindSpeedMPH,WindSpeedGustMPH,Humidity,HourlyPrecipIn,Conditions,Clouds,dailyrainin,SolarRadiationWatts/m^2,SoftwareType,DateUTC
2013-03-20 00:23:00,2.0,-2.0,-100.00,NW,319,14.0,17.0,84,0.00,,,0.00,0.000000,,2013-03-20 05:23:00,
2013-03-20 00:32:00,2.0,-2.0,-100.00,NW,319,14.0,17.0,84,0.00,,,0.00,0.000000,,2013-03-20 05:32:00,
2013-03-20 00:42:00,2.0,-2.0,-100.00,NW,319,14.0,17.0,84,0.00,,,0.00,0.000000,,2013-03-20 05:42:00,
2013-03-20 00:52:00,2.0,-2.0,-100.00,NW,319,14.0,17.0,84,0.00,,,0.00,0.000000,,2013-03-20 05:52:00,
2013-03-20 01:22:00,0.0,-4.0,-100.00,NW,313,12.0,18.0,83,0.00,,,0.00,0.000000,,2013-03-20 06:22:00,
2013-03-20 01:32:00,0.0,-4.0,-100.00,NW,313,12.0,18.0,83,0.00,,,0.00,0.000000,,2013-03-20 06:32:00,
2013-03-20 01:42:00,0.0,-4.0,-100.00,NW,313,12.0,18.0,83,0.00,,,0.00,0.000000,,2013-03-20 06:42:00,
2013-03-20 01:52:00,0.0,-4.0,-100.00,NW,313,12.0,18.0,83,0.00,,,0.00,0.000000,,2013-03-20 06:52:00,
2013-03-20 02:22:00,-1.0,-5.0,-100.00,NW,311,12.0,14.0,81,0.00,,,0.00,0.000000,,2013-03-20 07:22:00,
2013-03-20 02:32:00,-1.0,-5.0,-100.00,NW,311,12.0,14.0,81,0.00,,,0.00,0.000000,,2013-03-20 07:32:00,
2013-03-20 02:42:00,-1.0,-5.0,-100.00,NW,311,12.0,14.0,81,0.00,,,0.00,0.000000,,2013-03-20 07:42:00,
2013-03-20 02:52:00,-1.0,-5.0,-100.00,NW,311,12.0,14.0,81,0.00,,,0.00,0.000000,,2013-03-20 07:52:00,
2013-03-20 03:22:00,-1.0,-5.0,-100.00,NW,318,14.0,20.0,82,0.00,,,0.00,0.000000,,2013-03-20 08:22:00,
2013-03-20 03:32:00,-1.0,-5.0,-100.00,NW,318,14.0,20.0,82,0.00,,,0.00,0.000000,,2013-03-20 08:32:00,
2013-03-20 03:42:00,-1.0,-5.0,-100.00,NW,318,14.0,20.0,82,0.00,,,0.00,0.000000,,2013-03-20 08:42:00,
2013-03-20 03:52:00,-1.0,-5.0,-100.00,NW,318,14.0,20.0,82,0.00,,,0.00,0.000000,,2013-03-20 08:52:00,
2013-03-20 04:22:00,-1.0,-5.0,-100.00,NW,323,14.0,18.0,82,0.00,,,0.00,0.000000,,2013-03-20 09:22:00,
2013-03-20 04:33:00,-1.0,-5.0,-100.00,NW,323,14.0,18.0,82,0.00,,,0.00,0.000000,,2013-03-20 09:33:00,
2013-03-20 04:43:00,-1.0,-5.0,-100.00,NW,323,14.0,18.0,82,0.00,,,0.00,0.000000,,2013-03-20 09:43:00,
2013-03-20 04:52:00,-1.0,-5.0,-100.00,NW,323,14.0,18.0,82,0.00,,,0.00,0.000000,,2013-03-20 09:52:00,
2013-03-20 05:23:00,-2.0,-6.0,-100.00,NW,314,13.0,18.0,81,0.00,,,0.00,0.000000,,2013-03-20 10:23:00,
2013-03-20 05:32:00,-2.0,-6.0,-100.00,NW,314,13.0,18.0,81,0.00,,,0.00,0.000000,,2013-03-20 10:32:00,
2013-03-20 05:42:00,-2.0,-6.0,-100.00,NW,314,13.0,18.0,81,0.00,,,0.00,0.000000,,2013-03-20 10:42:00,
2013-03-20 05:52:00,-2.0,-6.0,-100.00,NW,314,13.0,18.0,81,0.00,,,0.00,0.000000,,2013-03-20 10:52:00,
2013-03-20 06:22:00,-4.0,-9.0,-100.00,NW,309,12.0,15.0,78,0.00,,,0.00,0.000000,,2013-03-20 11:22:00,
2013-03-20 06:32:00,-4.0,-9.0,-100.00,NW,309,12.0,15.0,78,0.00,,,0.00,0.000000,,2013-03-20 11:32:00,
2013-03-20 06:42:00,-4.0,-9.0,-100.00,NW,309,12.0,15.0,78,0.00,,,0.00,0.000000,,2013-03-20 11:42:00,
2013-03-20 06:52:00,-4.0,-9.0,-100.00,NW,309,12.0,15.0,78,0.00,,,0.00,0.000000,,2013-03-20 11:52:00,
2013-03-20 07:22:00,-6.0,-11.0,-100.00,NW,304,9.0,15.0,78,0.00,,,0.00,0.000000,,2013-03-20 12:22:00,
2013-03-20 07:32:00,-6.0,-11.0,-100.00,NW,304,9.0,15.0,78,0.00,,,0.00,0.000000,,2013-03-20 12:32:00,
2013-03-20 07:42:00,-6.0,-11.0,-100.00,NW,304,9.0,15.0,78,0.00,,,0.00,0.000000,,2013-03-20 12:42:00,
2013-03-20 07:52:00,-6.0,-11.0,-100.00,NW,304,9.0,15.0,78,0.00,,,0.00,0.000000,,2013-03-20 12:52:00,
2013-03-20 08:22:00,-6.0,-11.0,-100.00,NW,305,9.0,11.0,78,0.00,,,0.00,7.000000,,2013-03-20 13:22:00,
2013-03-20 08:32:00,-6.0,-11.0,-100.00,NW,305,9.0,11.0,78,0.00,,,0.00,7.000000,,2013-03-20 13:32:00,
2013-03-20 08:42:00,-6.0,-11.0,-100.00,NW,305,9.0,11.0,78,0.00,,,0.00,7.000000,,2013-03-20 13:42:00,
2013-03-20 08:52:00,-6.0,-11.0,-100.00,NW,305,9.0,11.0,78,0.00,,,0.00,7.000000,,2013-03-20 13:52:00,
2013-03-20 09:23:00,-4.0,-10.0,-100.00,WNW,299,8.0,10.0,74,0.00,,,0.00,87.000000,,2013-03-20 14:23:00,
2013-03-20 09:33:00,-4.0,-10.0,-100.00,WNW,299,8.0,10.0,74,0.00,,,0.00,87.000000,,2013-03-20 14:33:00,
2013-03-20 09:42:00,-4.0,-10.0,-100.00,WNW,299,8.0,10.0,74,0.00,,,0.00,87.000000,,2013-03-20 14:42:00,
2013-03-20 09:52:00,-4.0,-10.0,-100.00,WNW,299,8.0,10.0,74,0.00,,,0.00,87.000000,,2013-03-20 14:52:00,
2013-03-20 10:22:00,-1.0,-8.0,-100.00,WNW,300,7.0,9.0,73,0.00,,,0.00,66.000000,,2013-03-20 15:22:00,
2013-03-20 10:33:00,-1.0,-8.0,-100.00,WNW,300,7.0,9.0,73,0.00,,,0.00,66.000000,,2013-03-20 15:33:00,
2013-03-20 10:43:00,-1.0,-8.0,-100.00,WNW,300,7.0,9.0,73,0.00,,,0.00,66.000000,,2013-03-20 15:43:00,
2013-03-20 10:52:00,-1.0,-8.0,-100.00,WNW,300,7.0,9.0,73,0.00,,,0.00,66.000000,,2013-03-20 15:52:00,
2013-03-20 11:23:00,2.0,-4.0,-100.00,WNW,303,9.0,10.0,74,0.00,,,0.00,456.000000,,2013-03-20 16:23:00,
2013-03-20 11:33:00,2.0,-4.0,-100.00,WNW,303,9.0,10.0,74,0.00,,,0.00,456.000000,,2013-03-20 16:33:00,
2013-03-20 11:43:00,2.0,-4.0,-100.00,WNW,303,9.0,10.0,74,0.00,,,0.00,456.000000,,2013-03-20 16:43:00,
2013-03-20 11:52:00,2.0,-4.0,-100.00,WNW,303,9.0,10.0,74,0.00,,,0.00,456.000000,,2013-03-20 16:52:00,
2013-03-20 12:22:00,5.0,-1.0,-100.00,WNW,294,11.0,13.0,76,0.00,,,0.00,725.000000,,2013-03-20 17:22:00,
2013-03-20 12:32:00,5.0,-1.0,-100.00,WNW,294,11.0,13.0,76,0.00,,,0.00,725.000000,,2013-03-20 17:32:00,
2013-03-20 12:42:00,5.0,-1.0,-100.00,WNW,294,11.0,13.0,76,0.00,,,0.00,725.000000,,2013-03-20 17:42:00,
2013-03-20 12:52:00,5.0,-1.0,-100.00,WNW,294,11.0,13.0,76,0.00,,,0.00,725.000000,,2013-03-20 17:52:00,
2013-03-20 13:22:00,7.0,1.0,-100.00,WNW,301,11.0,14.0,76,0.00,,,0.00,794.000000,,2013-03-20 18:22:00,
2013-03-20 13:33:00,7.0,1.0,-100.00,WNW,301,11.0,14.0,76,0.00,,,0.00,794.000000,,2013-03-20 18:33:00,
2013-03-20 13:42:00,7.0,1.0,-100.00,WNW,301,11.0,14.0,76,0.00,,,0.00,794.000000,,2013-03-20 18:42:00,
2013-03-20 13:52:00,7.0,1.0,-100.00,WNW,301,11.0,14.0,76,0.00,,,0.00,794.000000,,2013-03-20 18:52:00,
2013-03-20 14:22:00,9.0,3.0,-100.00,WNW,285,12.0,14.0,77,0.00,,,0.00,854.000000,,2013-03-20 19:22:00,
2013-03-20 14:32:00,9.0,3.0,-100.00,WNW,285,12.0,14.0,77,0.00,,,0.00,854.000000,,2013-03-20 19:32:00,
2013-03-20 14:42:00,9.0,3.0,-100.00,WNW,285,12.0,14.0,77,0.00,,,0.00,854.000000,,2013-03-20 19:42:00,
2013-03-20 14:52:00,9.0,3.0,-100.00,WNW,285,12.0,14.0,77,0.00,,,0.00,854.000000,,2013-03-20 19:52:00,
2013-03-20 15:22:00,11.0,6.0,-100.00,WNW,293,12.0,15.0,78,0.00,,,0.00,858.000000,,2013-03-20 20:22:00,
2013-03-20 15:32:00,11.0,6.0,-100.00,WNW,293,12.0,15.0,78,0.00,,,0.00,858.000000,,2013-03-20 20:32:00,
2013-03-20 15:42:00,11.0,6.0,-100.00,WNW,293,12.0,15.0,78,0.00,,,0.00,858.000000,,2013-03-20 20:42:00,
2013-03-20 15:52:00,11.0,6.0,-100.00,WNW,293,12.0,15.0,78,0.00,,,0.00,858.000000,,2013-03-20 20:52:00,
2013-03-20 17:23:00,13.0,5.0,-100.00,NNW,341,11.0,16.0,70,-99.99,,,0.00,595.000000,,2013-03-20 22:23:00,
2013-03-20 17:33:00,13.0,5.0,-100.00,NNW,341,11.0,16.0,70,-99.99,,,0.00,595.000000,,2013-03-20 22:33:00,
2013-03-20 17:42:00,13.0,5.0,-100.00,NNW,341,11.0,16.0,70,-99.99,,,0.00,595.000000,,2013-03-20 22:42:00,
2013-03-20 17:52:00,13.0,5.0,-100.00,NNW,341,11.0,16.0,70,-99.99,,,0.00,595.000000,,2013-03-20 22:52:00,
2013-03-20 18:22:00,13.0,4.0,-100.00,NNW,336,10.0,14.0,66,0.00,,,0.00,384.000000,,2013-03-20 23:22:00,
2013-03-20 18:32:00,13.0,4.0,-100.00,NNW,336,10.0,14.0,66,0.00,,,0.00,384.000000,,2013-03-20 23:32:00,
2013-03-20 18:42:00,13.0,4.0,-100.00,NNW,336,10.0,14.0,66,0.00,,,0.00,384.000000,,2013-03-20 23:42:00,
2013-03-20 18:52:00,13.0,4.0,-100.00,NNW,336,10.0,14.0,66,0.00,,,0.00,384.000000,,2013-03-20 23:52:00,
2013-03-20 19:23:00,10.0,3.0,-100.00,NNW,347,9.0,14.0,71,0.00,,,0.00,187.000000,,2013-03-21 00:23:00,
2013-03-20 19:33:00,10.0,3.0,-100.00,NNW,347,9.0,14.0,71,0.00,,,0.00,187.000000,,2013-03-21 00:33:00,
2013-03-20 19:42:00,10.0,3.0,-100.00,NNW,347,9.0,14.0,71,0.00,,,0.00,187.000000,,2013-03-21 00:42:00,
2013-03-20 19:52:00,10.0,3.0,-100.00,NNW,347,9.0,14.0,71,0.00,,,0.00,187.000000,,2013-03-21 00:52:00,
2013-03-20 20:22:00,7.0,2.0,-100.00,North,2,11.0,11.0,78,0.00,,,0.00,24.000000,,2013-03-21 01:22:00,
2013-03-20 20:32:00,7.0,2.0,-100.00,North,2,11.0,11.0,78,0.00,,,0.00,24.000000,,2013-03-21 01:32:00,
2013-03-20 20:42:00,7.0,2.0,-100.00,North,2,11.0,11.0,78,0.00,,,0.00,24.000000,,2013-03-21 01:42:00,
2013-03-20 20:52:00,7.0,2.0,-100.00,North,2,11.0,11.0,78,0.00,,,0.00,24.000000,,2013-03-21 01:52:00,
2013-03-20 21:22:00,5.0,-2.0,-100.00,North,353,12.0,14.0,73,0.00,,,0.00,0.000000,,2013-03-21 02:22:00,
2013-03-20 21:32:00,5.0,-2.0,-100.00,North,353,12.0,14.0,73,0.00,,,0.00,0.000000,,2013-03-21 02:32:00,
2013-03-20 21:42:00,5.0,-2.0,-100.00,North,353,12.0,14.0,73,0.00,,,0.00,0.000000,,2013-03-21 02:42:00,
2013-03-20 21:51:00,5.0,-2.0,-100.00,North,353,12.0,14.0,73,0.00,,,0.00,0.000000,,2013-03-21 02:51:00,
2013-03-20 22:22:00,4.0,-3.0,-100.00,North,8,8.0,14.0,72,0.00,,,0.00,0.000000,,2013-03-21 03:22:00,
2013-03-20 22:33:00,4.0,-3.0,-100.00,North,8,8.0,14.0,72,0.00,,,0.00,0.000000,,2013-03-21 03:33:00,
2013-03-20 22:43:00,4.0,-3.0,-100.00,North,8,8.0,14.0,72,0.00,,,0.00,0.000000,,2013-03-21 03:43:00,
2013-03-20 22:53:00,4.0,-3.0,-100.00,North,8,8.0,14.0,72,0.00,,,0.00,0.000000,,2013-03-21 03:53:00,
2013-03-20 23:23:00,3.0,-4.0,-100.00,NE,34,7.0,14.0,72,0.00,,,0.00,0.000000,,2013-03-21 04:23:00,
2013-03-20 23:33:00,3.0,-4.0,-100.00,NE,34,7.0,14.0,72,0.00,,,0.00,0.000000,,2013-03-21 04:33:00,
2013-03-20 23:43:00,3.0,-4.0,-100.00,NE,34,7.0,14.0,72,0.00,,,0.00,0.000000,,2013-03-21 04:43:00,
2013-03-20 23:53:00,3.0,-4.0,-100.00,NE,34,7.0,14.0,72,0.00,,,0.00,0.000000,,2013-03-21 04:53:00,